Location: Lecco
(45.8566°N, 9.3977°E)
Time: 13:30:54
(UTC+02:00)

S-56A Canister/Altair - Pass Details

Date: 28 July 2019
Orbit: 633 x 2499 km, 38.9° (Epoch: 20 August)

Event Time Altitude Azimuth Distance (km) Brightness Sun altitude
Rises 12:11:39 0° 282° (WNW) 5,686 11.7 58.8°
Reaches altitude 10° 12:15:40 10° 273° (W) 4,868 11.5 59.2°
Maximum altitude 12:27:31 33° 218° (SW) 3,600 11.6 60.3°
Drops below altitude 10° 12:39:47 10° 162° (SSE) 5,004 12.3 61.3°
Sets 12:44:01 0° 153° (SSE) 5,857 12.4 61.6°
